Location: London
(51.5074°N, 0.1278°W)
Time: 22:28:48
(UTC+01:00)

N. Korean satellite - Pass Details

Date: 02 October 2021
Orbit: 450 x 494 km, 97.3° (Epoch: 28 October)

Event Time Altitude Azimuth Distance (km) Brightness Sun altitude
Rises 05:53:34 0° 20° (NNE) 2,552 10.6 -11.6°
Reaches altitude 10° 05:55:45 10° 29° (NNE) 1,675 9.8 -11.3°
Maximum altitude 05:59:05 35° 97° (E) 807 8.4 -10.7°
Drops below altitude 10° 06:02:27 10° 165° (SSE) 1,681 9.4 -10.2°
Sets 06:04:38 0° 174° (S) 2,563 10.2 -9.9°
